Terug naar catalogus

CZ-6A DEB

ActiefSSO
NORAD 57575·DEBRIS·🇨🇳 China

Gelanceerd Nov 11, 2022 vanaf Taiyuan Satellite Launch Center

Loading…

Volgende Passages (komende 24 uur)

TLE

VersSource: Space-Track

Epoch: Sep 13, 2026, 10:43 UTC

1 57575U 22151AHS 26256.44655235  .00002370  00000-0  10774-2 0  9998
2 57575  98.8109 262.7229 0045258  44.9222 315.5603 14.22189059183807

Volg CZ-6A DEB in realtime met AllMySat

Download on the App Store